Location: Gisborne
(38.6530°S, 178.0040°E)
Time: 18:36:49
(UTC+13:00)

Cosmos 2360 Rocket - Pass Details

Date: 24 January 2019
Orbit: 833 x 846 km, 71.0° (Epoch: 23 October)

Event Time Altitude Azimuth Distance (km) Brightness Sun altitude
Exits shadow 22:38:01 - 333° (NNW) 2,930 4.8 -20.8°
Reaches altitude 10° 22:39:14 10° 332° (NNW) 2,471 4.4 -20.9°
Maximum altitude 22:44:55 75° 247° (WSW) 888 2.3 -21.7°
Drops below altitude 10° 22:50:37 10° 161° (SSE) 2,481 5.0 -22.4°
Sets 22:53:08 0° 159° (SSE) 3,437 5.8 -22.7°
